Location: Geçitköy
(36.7327°N, 29.8010°E)
Time: 19:07:20
(UTC+00:00)

Helios 1A Rocket - Pass Details

Date: 12 January 2026
Orbit: 426 x 436 km, 98.3° (Epoch: 11 February)

Event Time Altitude Azimuth Distance (km) Brightness Sun altitude
Exits shadow 16:04:04 16° 96° (E) 1,208 4.0 -11.7°
Maximum altitude 16:04:04 16° 96° (E) 1,208 4.0 -11.7°
Drops below altitude 10° 16:06:14 10° 137° (SE) 1,537 4.9 -12.1°
Sets 16:08:46 0° 159° (SSE) 2,393 6.1 -12.6°
